Location: Saint Louis
(38.6272°N, 90.1978°W)
Time: 09:15:26
(UTC-05:00)

ISS - Pass Details

Date: 13 August 2013
Orbit: 402 x 403 km, 51.6° (Epoch: 25 June)

Event Time Altitude Azimuth Distance (km) Brightness Sun altitude
Rises 22:14:43 0° 315° (NW) 2,335 2.0 -23.7°
Reaches altitude 10° 22:17:00 10° 328° (NNW) 1,465 0.5 -24.0°
Enters shadow 22:19:03 24° 3° (N) 879 -1.3 -24.3°
